Weather Roundup
Issued by NWS Chicago, IL

Home | Current Version | Previous Version | Graphics & Text | Print | Product List | Glossary On
Versions: 1 2 3 4 5 6 7 8 9 10 11 12 13 14 15 16 17 18 19 20 21 22 23 24 25 26 27 28 29 30 31 32 33 34 35 36 37 38 39 40 41 42 43 44 45 46 47 48 49 50
000
NZUS59 KLOT 230106
HRRLOT

CHICAGO AREA WEATHER ROUNDUP
NATIONAL WEATHER SERVICE CHICAGO/ROMEOVILLE IL
700 PM CST SAT NOV 22 2014

NOTE: "FAIR" INDICATES FEW OR NO CLOUDS BELOW 12,000 FEET WITH NO
SIGNIFICANT WEATHER AND/OR OBSTRUCTIONS TO VISIBILITY.

* THESE STATIONS ARE NOT UNDER NWS QUALITY CONTROL. THEY ALSO MAY NOT
  REPORT WEATHER SUCH AS PRECIPITATION OR FOG.

ILZ005-006-012>014-019>023-230200-
NORTHEAST ILLINOIS

CITY           SKY/WX    TMP DP  RH WIND       PRES   REMARKS
OHARE          CLOUDY    52  45  77 SW15G24   29.86R
MIDWAY         CLOUDY    53  46  77 SW14G24   29.87F
AURORA         CLOUDY    52  45  77 S12       29.86S
LANSING*       CLOUDY    50  45  84 S12G20    29.90S
JOLIET*        CLOUDY    51  45  79 S14       29.88S
WAUKEGAN       CLOUDY    50  46  86 S12       29.83S
DUPAGE AIRPORT CLOUDY    50  46  86 S13       29.85S
WHEELING       MOCLDY    51  46  83 S14       29.87R
KANKAKEE*      CLOUDY    52  46  81 S14G23    29.92S
MORRIS*        CLOUDY    51  46  83 S15       29.87F
LEWIS AIRPORT* CLOUDY    51  44  78 SW21      29.86F
NORTHERLY IS     N/A     53  44  71 S14         N/A
$$

WIZ051-052-058>065-066-070>072-230200-
SOUTHEAST WISCONSIN

CITY           SKY/WX    TMP DP  RH WIND       PRES   REMARKS
MILWAUKEE      MOCLDY    46  42  86 SW8       29.82S
KENOSHA*       MOCLDY    48  45  89 S7        29.83S
RACINE*        MOCLDY    47  43  86 SW9       29.84S
BURLINGTON     MOCLDY    44  43  96 S7        29.82S
WAUKESHA       CLOUDY    45  43  93 S8        29.82S FOG
WEST BEND      CLOUDY    45  41  87 CALM      29.80S
$$

INZ001>003-010>013-019-020-230200-
NORTHWEST INDIANA

CITY           SKY/WX    TMP DP  RH WIND       PRES   REMARKS
GARY*          CLOUDY    54  45  71 S12       29.90S
MICHIGAN CITY* NOT AVBL
RENSSELAER*    NOT AVBL
VALPARAISO     CLOUDY    50  45  83 SW10      29.93S
$$

LMZ740>746-230200-
SOUTHERN LAKE MICHIGAN

STATION/POSITION TIME  SKY/WX   TEMP WIND        PRES    VSBY
                                AIR  DIR/SP/G
                 (UTC)          (F)  (DEG/KT/KT) (MB)    (MI)
HARRISON CRIB    0100            52  200/ 28/ 34   N/A
BURNHAM HARBOR   0100            53  210/ 11/ 17   N/A
CALUMET HARBOR   0100            52  190/ 11/ 16 1010.8F
BURNS HARBOR     NOT AVBL
MICHIGAN CITY    0100            52  170/ 18/ 24   N/A
$$

ABBREVIATIONS USED IN REMARKS
   TC - TEMPERATURE IN CELSIUS
  WCI - WIND CHILL INDEX
   HX - HEAT INDEX
  VSB - VISIBILITY
$$



USA.gov is the U.S. government's official web portal to all federal, state and local government web resources and services.